• In Österreich
  • Länderverzeichnis
  • Für 7 Tage
  • Wassertemperatur
  • Satellitenkarten
  • Wetterkarte
  • News
  • Widgets
  • user-avatar
    Anmelden

    Stündliche Wetter Tomarza

    Heute, 24 November, Freitag

    Zeit Temperatur Niederschläge Wind Luftdruck Luftfeuchtigkeit
    00:00 -1°C° 0,3 mm 2 m/S 638 mmHg 93%
    01:00 -1°C° 0,3 mm 2 m/S 638 mmHg 93%
    02:00 -1°C° 0 mm 3 m/S 638 mmHg 93%
    03:00 -1°C° 0,3 mm 3 m/S 638 mmHg 93%
    04:00 -1°C° 0,3 mm 3 m/S 639 mmHg 93%
    05:00 -1°C° 0,3 mm 3 m/S 639 mmHg 93%
    06:00 -1°C° 0,2 mm 3 m/S 639 mmHg 92%
    07:00 0°C° 0,2 mm 3 m/S 639 mmHg 91%
    08:00 0°C° 0,2 mm 3 m/S 639 mmHg 90%
    09:00 +1°C° 0,1 mm 3 m/S 640 mmHg 88%
    10:00 +1°C° 0,1 mm 3 m/S 640 mmHg 85%
    11:00 +2°C° 0,1 mm 3 m/S 640 mmHg 83%
    12:00 +2°C° 0,1 mm 3 m/S 640 mmHg 81%
    13:00 +2°C° 0,1 mm 3 m/S 640 mmHg 80%
    14:00 +2°C° 0,1 mm 3 m/S 640 mmHg 79%
    15:00 +3°C° 0 mm 2 m/S 639 mmHg 81%
    16:00 +2°C° 0 mm 2 m/S 639 mmHg 83%
    17:00 +2°C° 0 mm 1 m/S 639 mmHg 86%
    18:00 +1°C° 0 mm 1 m/S 639 mmHg 86%
    19:00 +1°C° 0 mm 1 m/S 640 mmHg 86%
    20:00 +1°C° 0 mm 1 m/S 640 mmHg 87%
    21:00 0°C° 0 mm 1 m/S 640 mmHg 87%
    22:00 0°C° 0 mm 1 m/S 640 mmHg 87%
    23:00 0°C° 0 mm 1 m/S 640 mmHg 87%

    Morgen, 25 November, Samstag

    Zeit Temperatur Niederschläge Wind Luftdruck Luftfeuchtigkeit
    00:00 0°C° 0 mm 1 m/S 640 mmHg 86%
    01:00 0°C° 0 mm 1 m/S 640 mmHg 86%
    02:00 -1°C° 0 mm 1 m/S 640 mmHg 85%
    03:00 -1°C° 0 mm 1 m/S 640 mmHg 85%
    04:00 -1°C° 0 mm 1 m/S 640 mmHg 84%
    05:00 -1°C° 0 mm 1 m/S 640 mmHg 83%
    06:00 0°C° 0 mm 1 m/S 641 mmHg 81%
    07:00 +1°C° 0 mm 1 m/S 641 mmHg 78%
    08:00 +1°C° 0 mm 1 m/S 642 mmHg 75%
    09:00 +3°C° 0 mm 1 m/S 642 mmHg 73%
    10:00 +4°C° 0 mm 1 m/S 642 mmHg 71%
    11:00 +5°C° 0 mm 1 m/S 642 mmHg 69%
    12:00 +6°C° 0 mm 1 m/S 642 mmHg 68%
    13:00 +6°C° 0 mm 1 m/S 642 mmHg 66%
    14:00 +6°C° 0 mm 1 m/S 642 mmHg 65%
    15:00 +5°C° 0 mm 1 m/S 641 mmHg 67%
    16:00 +4°C° 0 mm 1 m/S 641 mmHg 70%
    17:00 +2°C° 0 mm 1 m/S 641 mmHg 72%
    18:00 +1°C° 0 mm 2 m/S 641 mmHg 73%
    19:00 +1°C° 0 mm 2 m/S 641 mmHg 74%
    20:00 -1°C° 0 mm 2 m/S 641 mmHg 75%
    21:00 -1°C° 0 mm 2 m/S 641 mmHg 75%
    22:00 -1°C° 0 mm 2 m/S 641 mmHg 76%
    23:00 -1°C° 0 mm 2 m/S 641 mmHg 76%

    übermorgen, 26 November, Sonntag

    Zeit Temperatur Niederschläge Wind Luftdruck Luftfeuchtigkeit
    00:00 -1°C° 0 mm 2 m/S 641 mmHg 78%
    01:00 -1°C° 0 mm 2 m/S 641 mmHg 79%
    02:00 -1°C° 0 mm 2 m/S 641 mmHg 80%
    03:00 -2°C° 0 mm 2 m/S 641 mmHg 81%
    04:00 -2°C° 0 mm 2 m/S 641 mmHg 81%
    05:00 -2°C° 0 mm 2 m/S 640 mmHg 82%
    06:00 -1°C° 0 mm 2 m/S 641 mmHg 80%
    07:00 -1°C° 0 mm 2 m/S 641 mmHg 79%
    08:00 +1°C° 0 mm 2 m/S 641 mmHg 77%
    09:00 +2°C° 0 mm 2 m/S 641 mmHg 74%
    10:00 +4°C° 0 mm 2 m/S 641 mmHg 72%
    11:00 +5°C° 0 mm 2 m/S 642 mmHg 69%
    12:00 +7°C° 0 mm 1 m/S 641 mmHg 68%
    13:00 +7°C° 0 mm 1 m/S 641 mmHg 66%
    14:00 +7°C° 0 mm 1 m/S 641 mmHg 65%
    15:00 +6°C° 0 mm 1 m/S 640 mmHg 69%
    16:00 +5°C° 0 mm 1 m/S 640 mmHg 72%
    17:00 +3°C° 0 mm 1 m/S 640 mmHg 76%
    18:00 +3°C° 0 mm 1 m/S 640 mmHg 78%
    19:00 +2°C° 0 mm 2 m/S 640 mmHg 79%
    20:00 +1°C° 0 mm 2 m/S 640 mmHg 80%
    21:00 +1°C° 0 mm 2 m/S 640 mmHg 81%
    22:00 +1°C° 0 mm 2 m/S 640 mmHg 83%
    23:00 -1°C° 0 mm 2 m/S 640 mmHg 84%

    27 November, Montag

    Zeit Temperatur Niederschläge Wind Luftdruck Luftfeuchtigkeit
    00:00 -1°C° 0 mm 2 m/S 640 mmHg 84%
    01:00 -1°C° 0 mm 2 m/S 640 mmHg 84%
    02:00 -1°C° 0 mm 2 m/S 640 mmHg 85%
    03:00 -1°C° 0 mm 2 m/S 640 mmHg 85%
    04:00 -1°C° 0 mm 2 m/S 639 mmHg 85%
    05:00 0°C° 0 mm 1 m/S 639 mmHg 85%
    06:00 -1°C° 0 mm 2 m/S 640 mmHg 83%
    07:00 +1°C° 0 mm 2 m/S 640 mmHg 80%
    08:00 +2°C° 0 mm 2 m/S 641 mmHg 77%
    09:00 +3°C° 0 mm 2 m/S 641 mmHg 74%
    10:00 +4°C° 0 mm 2 m/S 641 mmHg 70%
    11:00 +6°C° 0 mm 2 m/S 641 mmHg 67%
    12:00 +6°C° 0 mm 2 m/S 640 mmHg 66%
    13:00 +6°C° 0 mm 2 m/S 640 mmHg 64%
    14:00 +7°C° 0 mm 2 m/S 640 mmHg 63%
    15:00 +6°C° 0 mm 2 m/S 639 mmHg 67%
    16:00 +4°C° 0 mm 2 m/S 639 mmHg 72%
    17:00 +3°C° 0 mm 2 m/S 639 mmHg 76%
    18:00 +3°C° 0 mm 2 m/S 639 mmHg 77%
    19:00 +3°C° 0 mm 2 m/S 639 mmHg 79%
    20:00 +2°C° 0 mm 2 m/S 639 mmHg 81%
    21:00 +2°C° 0 mm 2 m/S 639 mmHg 82%
    22:00 +1°C° 0 mm 2 m/S 639 mmHg 84%
    23:00 +1°C° 0 mm 2 m/S 638 mmHg 85%

    28 November, Dienstag

    Zeit Temperatur Niederschläge Wind Luftdruck Luftfeuchtigkeit
    00:00 0°C° 0 mm 3 m/S 638 mmHg 85%
    01:00 0°C° 0 mm 3 m/S 638 mmHg 86%
    02:00 0°C° 0 mm 3 m/S 638 mmHg 86%
    03:00 0°C° 0 mm 3 m/S 637 mmHg 86%
    04:00 0°C° 0 mm 3 m/S 637 mmHg 86%
    05:00 0°C° 0 mm 4 m/S 637 mmHg 87%
    06:00 0°C° 0,1 mm 4 m/S 637 mmHg 87%
    07:00 +1°C° 0,1 mm 3 m/S 638 mmHg 87%
    08:00 +2°C° 0,1 mm 3 m/S 638 mmHg 87%
    09:00 +2°C° 0,4 mm 3 m/S 638 mmHg 86%
    10:00 +3°C° 0,4 mm 3 m/S 638 mmHg 85%
    11:00 +4°C° 0,4 mm 3 m/S 638 mmHg 84%
    12:00 +4°C° 0,2 mm 3 m/S 638 mmHg 83%
    13:00 +4°C° 0,2 mm 3 m/S 637 mmHg 83%
    14:00 +4°C° 0,2 mm 3 m/S 637 mmHg 82%
    15:00 +4°C° 0 mm 3 m/S 637 mmHg 84%
    16:00 +3°C° 0 mm 3 m/S 637 mmHg 86%
    17:00 +2°C° 0 mm 3 m/S 637 mmHg 89%
    18:00 +2°C° 0,1 mm 3 m/S 637 mmHg 89%
    19:00 +2°C° 0,1 mm 3 m/S 637 mmHg 89%
    20:00 +2°C° 0,1 mm 3 m/S 637 mmHg 89%
    21:00 +3°C° 0,2 mm 2 m/S 637 mmHg 89%
    22:00 +3°C° 0,2 mm 2 m/S 637 mmHg 89%
    23:00 +3°C° 0,2 mm 2 m/S 637 mmHg 89%

    29 November, Mittwoch

    Zeit Temperatur Niederschläge Wind Luftdruck Luftfeuchtigkeit
    00:00 +3°C° 0,4 mm 2 m/S 637 mmHg 89%
    01:00 +3°C° 0,4 mm 2 m/S 637 mmHg 90%
    02:00 +3°C° 0,4 mm 2 m/S 636 mmHg 90%
    03:00 +3°C° 1,2 mm 2 m/S 636 mmHg 90%
    04:00 +3°C° 1,2 mm 2 m/S 636 mmHg 91%
    05:00 +4°C° 1,2 mm 1 m/S 636 mmHg 92%
    06:00 +3°C° 1,9 mm 2 m/S 636 mmHg 92%
    07:00 +3°C° 1,9 mm 2 m/S 636 mmHg 92%
    08:00 +3°C° 1,9 mm 2 m/S 636 mmHg 92%
    09:00 +3°C° 0,8 mm 2 m/S 636 mmHg 91%
    10:00 +4°C° 0,8 mm 2 m/S 636 mmHg 90%
    11:00 +4°C° 0,8 mm 2 m/S 636 mmHg 89%
    12:00 +4°C° 0,3 mm 2 m/S 636 mmHg 88%
    13:00 +5°C° 0,3 mm 2 m/S 636 mmHg 87%
    14:00 +5°C° 0,3 mm 2 m/S 635 mmHg 86%
    15:00 +4°C° 0,3 mm 2 m/S 635 mmHg 87%
    16:00 +3°C° 0,3 mm 2 m/S 635 mmHg 88%
    17:00 +3°C° 0,3 mm 2 m/S 635 mmHg 89%
    18:00 +2°C° 0,3 mm 2 m/S 636 mmHg 89%
    19:00 +2°C° 0,3 mm 2 m/S 636 mmHg 89%
    20:00 +2°C° 0,3 mm 2 m/S 636 mmHg 89%
    21:00 +3°C° 0,5 mm 1 m/S 636 mmHg 90%
    22:00 +3°C° 0,5 mm 1 m/S 636 mmHg 90%
    23:00 +2°C° 0,5 mm 1 m/S 636 mmHg 90%
    Mehr zeigen